Miscellaneous Local Product
Issued by NWS North Platte, NE

Home | Current Version | Previous Version | Graphics & Text | Print | Product List | Glossary On
Versions: 1 2 3 4 5 6 7 8 9 10 11 12 13 14 15 16 17 18 19 20 21 22 23 24 25 26 27 28 29 30 31 32 33 34 35 36 37 38 39 40 41 42 43 44 45 46 47 48 49 50
000
AXUS43 KLBF 281310
MISLBF


WESTERN AND NORTH CENTRAL NEBRASKA HOURLY WEATHER ROUNDUP
NATIONAL WEATHER SERVICE NORTH PLATTE NE
700 AM CST TUE FEB 28 2017

NOTE: "FAIR" INDICATES FEW OR NO CLOUDS BELOW 12,000 FEET WITH NO
SIGNIFICANT WEATHER AND/OR OBSTRUCTIONS TO VISIBILITY.

NOTE: STATIONS NOT REPORTING VARIABLES SUCH AS SKY/WEATHER OR
PRESSURE ARE PROVIDED BY RAWS AND APRS NETWORKS AND ARE NOT UNDER
NATIONAL WEATHER SERVICE QUALITY CONTROL.

...OBSERVATIONS IN AND NEAR THE EASTERN PANHANDLE OF NEBRASKA...

CITY           SKY/WX    TMP DP  RH WIND       PRES   REMARKS
PINE RIDGE     PTCLDY    23  17  78 S3        29.69R
CHADRON        CLOUDY    15  10  80 SW9       29.69S WCI   3
ALLIANCE       CLOUDY    24  14  65 W15       29.69R WCI  11
SIDNEY         CLOUDY    26  15  63 NW14      29.72R WCI  14
CRESCENT LAKE    N/A     26  15  62 NW7         N/A  WCI  18
$$

...OBSERVATIONS IN NORTHERN NEBRASKA AND FAR SOUTHERN SOUTH DAKOTA...

CITY           SKY/WX    TMP DP  RH WIND       PRES   REMARKS
WINNER         CLOUDY    33  31  92 N8        29.73R WCI  26
VALENTINE      FOG       28  25  88 NW3       29.72R VSB 1/2
THEDFORD       CLOUDY    24  22  91 W7        29.71S WCI  16
AINSWORTH      CLOUDY    26  25  98 CALM      29.71R
O`NEILL        CLOUDY    28  27  93 NW15      29.70S WCI  17
ORD            CLOUDY    31  26  82 NW15      29.66R WCI  20
BROKEN BOW     CLOUDY    31  26  82 N23       29.65S WCI  18
VALENTINE NWR    N/A     23  21  91 NW3         N/A
BUTTE            N/A     28  26  91 N12         N/A  WCI  18
HALSEY           N/A     25  22  88 NW5G13      N/A  WCI  19
CHAMBERS         N/A     28  26  90 W6          N/A  WCI  22
EWING            N/A     30  28  92 NW14        N/A  WCI  19
$$

...OBSERVATIONS IN SOUTHWEST NEBRASKA AND FAR NORTHEAST COLORADO...

CITY           SKY/WX    TMP DP  RH WIND       PRES   REMARKS
HOLYOKE        FAIR      27  19  74 W5        29.73S WCI  21
IMPERIAL       CLEAR     30  20  66 NW14      29.72R WCI  19
OGALLALA       CLOUDY    29  22  73 NW3       29.73S
NORTH PLATTE   CLEAR     25  21  85 W9        29.69S WCI  15
MCCOOK         CLEAR     27  22  81 W12       29.70R WCI  17
LEXINGTON      CLOUDY    29  26  88 NW9       29.68R WCI  21
STAPLETON        N/A     24  21  89 CALM        N/A
GOTHENBURG       N/A     30  25  81 NW6         N/A  WCI  24
CALLAWAY         N/A     27  25  90 NW5         N/A  WCI  22
$$

...OBSERVATIONS IN CENTRAL LINCOLN COUNTY AREA...

CITY           SKY/WX    TMP DP  RH WIND       PRES   REMARKS
N.P. AIRPORT   CLEAR     25  21  85 W9        29.69S WCI  15
N.P. DOWNTOWN    N/A     27  23  84 W5          N/A  WCI  22
N.P. SOUTHEAST   N/A     27  22  81 NW3         N/A
N.P. HILLCREST   N/A     27  23  85 NW12        N/A  WCI  17
$$

...SOME OBSERVATIONS FROM AROUND THE REGION...

CITY           SKY/WX    TMP DP  RH WIND       PRES   REMARKS
LARAMIE        CLOUDY     9   1  70 CALM      29.68R
CHEYENNE       CLOUDY    21   8  57 W16G24    29.68R WCI   7
DENVER         CLOUDY    23  16  74 S8        29.68S WCI  14
AKRON          CLOUDY    19  16  88 NW5       29.71R WCI  12
SCOTTSBLUFF    CLOUDY    27  12  53 W16       29.71R WCI  15
RAPID CITY     CLOUDY    25  23  92 E5        29.64R WCI  19
BISMARCK       CLOUDY    19  15  84 NE9       29.85R WCI   8
PIERRE         CLOUDY    26  23  88 NE3       29.76R
SIOUX FALLS    CLOUDY    32  30  92 NE12      29.66F WCI  23
OMAHA          PTCLDY    36  32  85 CALM      29.59R
GRAND ISLAND   CLOUDY    30  30 100 NW8       29.64R FOG     WCI  22
KANSAS CITY    CLOUDY    62  58  86 S14       29.67F
WICHITA        CLOUDY    53  53 100 S10       29.68S FOG
OKLAHOMA CITY  CLOUDY    59  58  96 S10       29.79S FOG
DALLAS         CLOUDY    70  66  87 S14       29.88R
AMARILLO       CLOUDY    55  28  35 S16       29.80S
DODGE CITY     CLOUDY    37  16  42 NW9       29.70R WCI  30
HAYS             N/A     32  22  66 CALM      29.69R
GOODLAND       CLEAR     25  20  81 NW13      29.68S WCI  14
$$




USA.gov is the U.S. government's official web portal to all federal, state and local government web resources and services.